User: anonymous   Login
Location: Valdosta
(30.8330°N, 83.2790°W)
Time: 06:39:53
(UTC-04:00)
Language:

Uribyol 2 - Orbit

View from above orbital plane
View from above orbital plane
View from above satellite
View from above satellite

Ground track
Ground track

The orbit data is extracted from the following two-line orbital elements,

1 22828U 93061F   15214.42960619  .00000038  00000-0  31572-4 0  9994
2 22828 098.6973 163.8468 0010702 130.5707 229.6409 14.30520031108038
Epoch (UTC): 02 August 2015 10:18:37
Eccentricity: 0.0010702
inclination: 98.6973°
perigee height: 782 km
apogee height: 797 km
right ascension of ascending node: 163.8468°
argument of perigee: 130.5707°
revolutions per day: 14.30520031
mean anomaly at epoch: 229.6409°
orbit number at epoch: 10803

The dashed part of the orbit path shows where the satellite is in the earth's shadow,  

DLR